| time (UTC) | temp C | wind direction | speed KPH | gust KPH | rain 1hr cm | rain 24hr cm | rain mn cm | humidity % | barometer mb |
| 20260505040018 | 12 | 136 | 3.2 | 3.2 | 0.00 | 0.00 | 0.00 | 94 | 1005.4 |
| 20260505035514 | 12 | 136 | 3.2 | 3.2 | 0.00 | 0.00 | 0.00 | 94 | 1005.1 |
| 20260505035011 | 12 | 134 | 4.8 | 4.8 | 0.00 | 0.00 | 0.00 | 94 | 1005.3 |
| 20260505034507 | 12 | 134 | 1.6 | 1.6 | 0.00 | 0.00 | 0.00 | 94 | 1005.2 |
| 20260505034004 | 12 | 137 | 3.2 | 3.2 | 0.00 | 0.00 | 0.00 | 94 | 1005.5 |
| 20260505033501 | 12 | 136 | 1.6 | 3.2 | 0.00 | 0.00 | 0.00 | 93 | 1005.2 |
| 20260505032959 | 12 | 132 | 3.2 | 3.2 | 0.00 | 0.00 | 0.00 | 93 | 1005.2 |
| 20260505032456 | 13 | 134 | 1.6 | 1.6 | 0.00 | 0.00 | 0.00 | 93 | 1005.3 |
| 20260505031952 | 13 | 135 | 1.6 | 1.6 | 0.00 | 0.00 | 0.00 | 93 | 1005.3 |
| 20260505031450 | 13 | 133 | 1.6 | 1.6 | 0.00 | 0.00 | 0.00 | 93 | 1005.1 |
| 20260505030946 | 13 | 133 | 1.6 | 1.6 | 0.00 | 0.00 | 0.00 | 93 | 1005.2 |
| 20260505030442 | 13 | 127 | 1.6 | 1.6 | 0.00 | 0.00 | 0.00 | 93 | 1005.2 |
| 20260505025938 | 13 | 133 | 1.6 | 3.2 | 0.00 | 0.00 | 0.00 | 92 | 1005.4 |
| 20260505025435 | 13 | 135 | 1.6 | 3.2 | 0.00 | 0.00 | 0.00 | 92 | 1005.1 |
| 20260505024934 | 13 | 129 | 0.0 | 0.0 | 0.00 | 0.00 | 0.00 | 92 | 1005.2 |
| 20260505024431 | 13 | 129 | 0.0 | 0.0 | 0.00 | 0.00 | 0.00 | 92 | 1005.3 |
| 20260505023928 | 13 | 132 | 0.0 | 0.0 | 0.00 | 0.00 | 0.00 | 91 | 1005.1 |
| 20260505023425 | 13 | 128 | 0.0 | 0.0 | 0.00 | 0.00 | 0.00 | 91 | 1005.1 |
| 20260505022922 | 13 | 132 | 0.0 | 0.0 | 0.00 | 0.00 | 0.00 | 91 | 1005.1 |
| 20260505022420 | 13 | 127 | 0.0 | 0.0 | 0.00 | 0.00 | 0.00 | 91 | 1005.1 |
| 20260505021917 | 13 | 128 | 0.0 | 0.0 | 0.00 | 0.00 | 0.00 | 91 | 1004.9 |
| 20260505021413 | 14 | 130 | 0.0 | 0.0 | 0.00 | 0.00 | 0.00 | 90 | 1005.0 |
| 20260505020909 | 14 | 131 | 0.0 | 0.0 | 0.00 | 0.00 | 0.00 | 89 | 1004.9 |
| 20260505020404 | 14 | 131 | 0.0 | 0.0 | 0.00 | 0.00 | 0.00 | 89 | 1005.1 |
| 20260505015902 | 15 | 130 | 0.0 | 0.0 | 0.00 | 0.00 | 0.00 | 88 | 1005.1 |
| 20260505015359 | 15 | 127 | 0.0 | 0.0 | 0.00 | 0.00 | 0.00 | 88 | 1004.9 |
| 20260505014856 | 15 | 127 | 0.0 | 0.0 | 0.00 | 0.00 | 0.00 | 87 | 1005.0 |
| 20260505014353 | 15 | 129 | 0.0 | 0.0 | 0.00 | 0.00 | 0.00 | 87 | 1004.8 |
| 20260505013850 | 15 | 131 | 0.0 | 0.0 | 0.00 | 0.00 | 0.00 | 86 | 1004.7 |
| 20260505013347 | 15 | 134 | 0.0 | 0.0 | 0.00 | 0.00 | 0.00 | 86 | 1004.6 |
| 20260505012845 | 15 | 128 | 0.0 | 0.0 | 0.00 | 0.00 | 0.00 | 86 | 1004.8 |
| 20260505012343 | 15 | 132 | 0.0 | 0.0 | 0.00 | 0.00 | 0.00 | 85 | 1005.0 |
| 20260505011838 | 16 | 134 | 0.0 | 0.0 | 0.00 | 0.00 | 0.00 | 84 | 1004.8 |
| 20260505011336 | 16 | 124 | 0.0 | 0.0 | 0.00 | 0.00 | 0.00 | 82 | 1004.9 |
| 20260505010831 | 16 | 128 | 0.0 | 0.0 | 0.00 | 0.00 | 0.00 | 82 | 1004.8 |
| 20260505010327 | 16 | 128 | 0.0 | 0.0 | 0.00 | 0.00 | 0.00 | 81 | 1004.8 |
| 20260505005824 | 17 | 127 | 0.0 | 0.0 | 0.00 | 0.00 | 0.00 | 79 | 1004.8 |
| 20260505005321 | 17 | 127 | 0.0 | 0.0 | 0.00 | 0.00 | 0.00 | 77 | 1004.7 |
| 20260505004818 | 17 | 127 | 0.0 | 0.0 | 0.00 | 0.00 | 0.00 | 75 | 1004.8 |
| 20260505004314 | 17 | 127 | 0.0 | 0.0 | 0.00 | 0.00 | 0.00 | 75 | 1004.9 |
| 20260505003812 | 18 | 127 | 0.0 | 0.0 | 0.00 | 0.00 | 0.00 | 74 | 1004.7 |
| 20260505003309 | 18 | 127 | 0.0 | 0.0 | 0.00 | 0.00 | 0.00 | 73 | 1004.7 |
| 20260505002805 | 18 | 127 | 0.0 | 0.0 | 0.00 | 0.00 | 0.00 | 72 | 1004.6 |
| 20260505002304 | 19 | 127 | 0.0 | 0.0 | 0.00 | 0.00 | 0.00 | 71 | 1004.7 |
| 20260505001801 | 19 | 124 | 0.0 | 0.0 | 0.00 | 0.00 | 0.00 | 70 | 1004.7 |
| 20260505001257 | 20 | 129 | 0.0 | 0.0 | 0.00 | 0.00 | 0.00 | 68 | 1004.7 |
| 20260505000754 | 20 | 131 | 0.0 | 0.0 | 0.00 | 0.00 | 0.00 | 67 | 1004.7 |
| 20260505000252 | 20 | 130 | 0.0 | 0.0 | 0.00 | 0.00 | 0.00 | 64 | 1004.5 |
| 20260504235749 | 21 | 132 | 0.0 | 0.0 | 0.00 | 0.00 | 0.00 | 60 | 1004.6 |
| 20260504235245 | 22 | 137 | 3.2 | 3.2 | 0.00 | 0.00 | 0.00 | 56 | 1004.8 |
| 20260504234742 | 22 | 126 | 3.2 | 3.2 | 0.00 | 0.00 | 0.00 | 51 | 1004.8 |
| 20260504234239 | 23 | 129 | 1.6 | 1.6 | 0.00 | 0.00 | 0.00 | 51 | 1005.0 |
| 20260504233736 | 23 | 75 | 6.4 | 8.0 | 0.00 | 0.00 | 0.00 | 50 | 1004.6 |
| 20260504233231 | 23 | 106 | 4.8 | 4.8 | 0.00 | 0.00 | 0.00 | 48 | 1004.9 |
| 20260504232729 | 23 | 101 | 8.0 | 9.7 | 0.00 | 0.00 | 0.00 | 49 | 1004.6 |
| 20260504232226 | 23 | 140 | 6.4 | 9.7 | 0.00 | 0.00 | 0.00 | 49 | 1004.8 |
| 20260504231722 | 23 | 127 | 3.2 | 3.2 | 0.00 | 0.00 | 0.00 | 53 | 1004.7 |
| 20260504231219 | 24 | 130 | 4.8 | 4.8 | 0.00 | 0.00 | 0.00 | 49 | 1004.6 |
| 20260504230715 | 23 | 93 | 8.0 | 9.7 | 0.00 | 0.00 | 0.00 | 49 | 1004.6 |
| 20260504230214 | 24 | 163 | 11.3 | 16.1 | 0.00 | 0.00 | 0.00 | 51 | 1004.9 |
| 20260504225712 | 24 | 130 | 0.0 | 1.6 | 0.00 | 0.00 | 0.00 | 51 | 1004.7 |
| 20260504225208 | 24 | 124 | 4.8 | 8.0 | 0.00 | 0.00 | 0.00 | 52 | 1004.6 |
| 20260504224705 | 24 | 74 | 4.8 | 4.8 | 0.00 | 0.00 | 0.00 | 52 | 1004.7 |
| 20260504224203 | 25 | 121 | 4.8 | 4.8 | 0.00 | 0.00 | 0.00 | 54 | 1004.7 |
| 20260504223659 | 24 | 128 | 3.2 | 3.2 | 0.00 | 0.00 | 0.00 | 50 | 1004.8 |
| 20260504223154 | 24 | 134 | 1.6 | 3.2 | 0.00 | 0.00 | 0.00 | 50 | 1004.8 |
| 20260504222652 | 24 | 126 | 4.8 | 8.0 | 0.00 | 0.00 | 0.00 | 50 | 1005.0 |
| 20260504222148 | 24 | 134 | 8.0 | 9.7 | 0.00 | 0.00 | 0.00 | 51 | 1004.9 |
| 20260504221646 | 24 | 104 | 6.4 | 8.0 | 0.00 | 0.00 | 0.00 | 51 | 1005.0 |
| 20260504221143 | 23 | 139 | 4.8 | 4.8 | 0.00 | 0.00 | 0.00 | 52 | 1005.1 |
| 20260504220639 | 24 | 135 | 0.0 | 0.0 | 0.00 | 0.00 | 0.00 | 50 | 1005.2 |
| 20260504220137 | 24 | 113 | 8.0 | 12.9 | 0.00 | 0.00 | 0.00 | 51 | 1005.0 |
| 20260504215633 | 25 | 142 | 6.4 | 8.0 | 0.00 | 0.00 | 0.00 | 50 | 1005.0 |
| 20260504215130 | 25 | 118 | 3.2 | 4.8 | 0.00 | 0.00 | 0.00 | 49 | 1005.1 |
| 20260504214626 | 25 | 140 | 6.4 | 8.0 | 0.00 | 0.00 | 0.00 | 51 | 1005.0 |
| 20260504214122 | 25 | 171 | 8.0 | 9.7 | 0.00 | 0.00 | 0.00 | 50 | 1005.2 |
| 20260504213619 | 25 | 135 | 3.2 | 4.8 | 0.00 | 0.00 | 0.00 | 54 | 1005.0 |
| 20260504213116 | 25 | 162 | 4.8 | 4.8 | 0.00 | 0.00 | 0.00 | 53 | 1005.1 |
| 20260504212612 | 25 | 97 | 1.6 | 3.2 | 0.00 | 0.00 | 0.00 | 54 | 1005.2 |
| 20260504212109 | 24 | 128 | 9.7 | 12.9 | 0.00 | 0.00 | 0.00 | 53 | 1005.3 |
| 20260504211606 | 24 | 172 | 3.2 | 3.2 | 0.00 | 0.00 | 0.00 | 55 | 1005.3 |
| 20260504211103 | 24 | 97 | 9.7 | 12.9 | 0.00 | 0.00 | 0.00 | 54 | 1005.5 |
| 20260504210601 | 25 | 147 | 6.4 | 8.0 | 0.00 | 0.00 | 0.00 | 53 | 1005.6 |
| 20260504210056 | 24 | 136 | 8.0 | 11.3 | 0.00 | 0.00 | 0.00 | 54 | 1005.4 |
| 20260504205555 | 25 | 109 | 4.8 | 4.8 | 0.00 | 0.00 | 0.00 | 54 | 1005.4 |
| 20260504205052 | 24 | 129 | 8.0 | 9.7 | 0.00 | 0.00 | 0.00 | 55 | 1005.4 |
| 20260504204550 | 23 | 128 | 0.0 | 3.2 | 0.00 | 0.00 | 0.00 | 56 | 1005.7 |
| 20260504204049 | 23 | 113 | 4.8 | 8.0 | 0.00 | 0.00 | 0.00 | 56 | 1005.6 |
| 20260504203547 | 23 | 146 | 6.4 | 9.7 | 0.00 | 0.00 | 0.00 | 54 | 1005.6 |
| 20260504203044 | 23 | 145 | 6.4 | 11.3 | 0.00 | 0.00 | 0.00 | 54 | 1005.8 |
| 20260504202539 | 23 | 135 | 9.7 | 12.9 | 0.00 | 0.00 | 0.00 | 56 | 1005.9 |
| 20260504202037 | 23 | 111 | 14.5 | 16.1 | 0.00 | 0.00 | 0.00 | 56 | 1005.7 |
| 20260504201533 | 23 | 113 | 3.2 | 4.8 | 0.00 | 0.00 | 0.00 | 55 | 1005.9 |
| 20260504201032 | 22 | 128 | 8.0 | 11.3 | 0.00 | 0.00 | 0.00 | 56 | 1005.8 |
| 20260504200527 | 22 | 121 | 12.9 | 16.1 | 0.00 | 0.00 | 0.00 | 56 | 1005.9 |
| 20260504200024 | 22 | 161 | 9.7 | 12.9 | 0.00 | 0.00 | 0.00 | 56 | 1005.8 |
| 20260504195520 | 22 | 126 | 4.8 | 9.7 | 0.00 | 0.00 | 0.00 | 58 | 1005.9 |
| 20260504195017 | 22 | 150 | 4.8 | 4.8 | 0.00 | 0.00 | 0.00 | 57 | 1005.9 |
| 20260504194514 | 22 | 125 | 8.0 | 14.5 | 0.00 | 0.00 | 0.00 | 60 | 1006.2 |
| 20260504194009 | 21 | 117 | 4.8 | 4.8 | 0.00 | 0.00 | 0.00 | 61 | 1006.4 |
| 20260504193506 | 22 | 134 | 6.4 | 8.0 | 0.00 | 0.00 | 0.00 | 63 | 1006.1 |
| 20260504193005 | 21 | 142 | 11.3 | 14.5 | 0.00 | 0.00 | 0.00 | 61 | 1006.3 |
| 20260504192502 | 20 | 108 | 8.0 | 11.3 | 0.00 | 0.00 | 0.00 | 61 | 1006.4 |
| 20260504192001 | 20 | 126 | 11.3 | 12.9 | 0.00 | 0.00 | 0.00 | 64 | 1006.3 |
| 20260504191458 | 20 | 118 | 11.3 | 16.1 | 0.00 | 0.00 | 0.00 | 65 | 1006.4 |
| 20260504190954 | 20 | 150 | 12.9 | 14.5 | 0.00 | 0.00 | 0.00 | 65 | 1006.3 |
| 20260504190449 | 19 | 144 | 16.1 | 20.9 | 0.00 | 0.00 | 0.00 | 68 | 1006.6 |
| 20260504185946 | 18 | 140 | 8.0 | 11.3 | 0.00 | 0.00 | 0.00 | 71 | 1006.7 |
| 20260504185443 | 18 | 133 | 6.4 | 8.0 | 0.00 | 0.00 | 0.00 | 72 | 1006.8 |
| 20260504184939 | 18 | 145 | 4.8 | 8.0 | 0.00 | 0.00 | 0.00 | 73 | 1007.1 |
| 20260504184435 | 18 | 141 | 11.3 | 12.9 | 0.00 | 0.00 | 0.00 | 73 | 1006.0 |
| 20260504183931 | 18 | 145 | 8.0 | 9.7 | 0.00 | 0.00 | 0.00 | 68 | 1007.2 |
| 20260504183429 | 20 | 93 | 6.4 | 14.5 | 0.00 | 0.00 | 0.00 | 64 | 1008.0 |
| 20260504182927 | 20 | 129 | 16.1 | 22.5 | 0.00 | 0.00 | 0.00 | 60 | 1008.1 |
| 20260504182423 | 20 | 129 | 1.6 | 3.2 | 0.00 | 0.00 | 0.00 | 59 | 1007.8 |
| 20260504181920 | 21 | 139 | 8.0 | 11.3 | 0.00 | 0.00 | 0.00 | 58 | 1007.3 |
| 20260504181417 | 21 | 146 | 8.0 | 9.7 | 0.00 | 0.00 | 0.00 | 56 | 1007.3 |
| 20260504180916 | 22 | 176 | 12.9 | 14.5 | 0.00 | 0.00 | 0.00 | 54 | 1007.4 |
| 20260504180415 | 22 | 78 | 6.4 | 9.7 | 0.00 | 0.00 | 0.00 | 54 | 1007.4 |
| 20260504175912 | 22 | 127 | 4.8 | 4.8 | 0.00 | 0.00 | 0.00 | 57 | 1007.3 |
| 20260504175409 | 21 | 79 | 8.0 | 9.7 | 0.00 | 0.00 | 0.00 | 56 | 1006.8 |
| 20260504174907 | 21 | 137 | 14.5 | 16.1 | 0.00 | 0.00 | 0.00 | 55 | 1007.0 |
| 20260504174404 | 21 | 117 | 8.0 | 9.7 | 0.00 | 0.00 | 0.00 | 56 | 1006.8 |
| 20260504173901 | 21 | 147 | 11.3 | 14.5 | 0.00 | 0.00 | 0.00 | 56 | 1006.9 |
| 20260504173357 | 21 | 93 | 14.5 | 20.9 | 0.00 | 0.00 | 0.00 | 56 | 1007.0 |
| 20260504172855 | 21 | 137 | 11.3 | 16.1 | 0.00 | 0.00 | 0.00 | 59 | 1006.8 |
| 20260504172351 | 21 | 169 | 8.0 | 9.7 | 0.00 | 0.00 | 0.00 | 58 | 1007.1 |
| 20260504171847 | 21 | 138 | 1.6 | 3.2 | 0.00 | 0.00 | 0.00 | 61 | 1007.0 |
| 20260504171345 | 20 | 113 | 8.0 | 11.3 | 0.00 | 0.00 | 0.00 | 60 | 1007.1 |
| 20260504170842 | 20 | 127 | 11.3 | 14.5 | 0.00 | 0.00 | 0.00 | 59 | 1006.9 |
| 20260504170338 | 20 | 113 | 11.3 | 12.9 | 0.00 | 0.00 | 0.00 | 60 | 1007.4 |
| 20260504160257 | 18 | 124 | 6.4 | 8.0 | 0.00 | 0.00 | 0.00 | 68 | 1008.0 |
| 20260504150722 | 16 | 125 | 4.8 | 4.8 | 0.00 | 0.00 | 0.00 | 75 | 1009.2 |
| 20260504150219 | 16 | 132 | 4.8 | 4.8 | 0.00 | 0.00 | 0.00 | 74 | 1009.5 |
| 20260504141148 | 13 | 120 | 9.7 | 11.3 | 0.00 | 0.00 | 0.00 | 80 | 1009.4 |
| 20260504140645 | 13 | 134 | 9.7 | 16.1 | 0.00 | 0.00 | 0.00 | 81 | 1009.7 |
| 20260504140140 | 12 | 165 | 8.0 | 9.7 | 0.00 | 0.00 | 0.00 | 80 | 1009.8 |
| 20260504130609 | 13 | 165 | 8.0 | 9.7 | 0.00 | 0.00 | 0.00 | 70 | 1009.8 |
| 20260504130106 | 13 | 115 | 11.3 | 14.5 | 0.00 | 0.00 | 0.00 | 69 | 1009.4 |
| 20260504110456 | 5 | 127 | 0.0 | 0.0 | 0.00 | 0.00 | 0.00 | 96 | 1009.0 |
| 20260504100419 | 5 | 129 | 0.0 | 0.0 | 0.00 | 0.00 | 0.00 | 96 | 1009.1 |
| 20260504081812 | 5 | 132 | 0.0 | 0.0 | 0.00 | 0.00 | 0.00 | 96 | 1009.9 |
| 20260504081309 | 5 | 132 | 0.0 | 0.0 | 0.00 | 0.00 | 0.00 | 96 | 1010.0 |
| 20260504080805 | 5 | 133 | 0.0 | 0.0 | 0.00 | 0.00 | 0.00 | 96 | 1009.9 |
| 20260504080301 | 5 | 132 | 0.0 | 0.0 | 0.00 | 0.00 | 0.00 | 96 | 1009.9 |
| 20260504070229 | 6 | 132 | 0.0 | 0.0 | 0.00 | 0.00 | 0.00 | 93 | 1010.2 |
| 20260504060149 | 8 | 134 | 1.6 | 1.6 | 0.00 | 0.00 | 0.00 | 90 | 1010.7 |
| 20260504050618 | 9 | 128 | 3.2 | 3.2 | 0.00 | 0.00 | 0.00 | 88 | 1010.8 |
| 20260504050115 | 9 | 133 | 3.2 | 3.2 | 0.00 | 0.00 | 0.00 | 92 | 1011.2 |
| 20260504045612 | 9 | 138 | 3.2 | 3.2 | 0.00 | 0.00 | 0.00 | 92 | 1011.2 |
| 20260504045106 | 9 | 137 | 3.2 | 3.2 | 0.00 | 0.00 | 0.00 | 91 | 1011.4 |
| 20260504044605 | 9 | 137 | 1.6 | 1.6 | 0.00 | 0.00 | 0.00 | 90 | 1011.3 |
| 20260504044101 | 9 | 130 | 1.6 | 1.6 | 0.00 | 0.00 | 0.00 | 90 | 1011.3 |
| 20260504043558 | 9 | 151 | 3.2 | 3.2 | 0.00 | 0.00 | 0.00 | 89 | 1011.3 |
| 20260504043055 | 9 | 135 | 3.2 | 3.2 | 0.00 | 0.00 | 0.00 | 88 | 1011.6 |
| 20260504042552 | 9 | 108 | 4.8 | 8.0 | 0.00 | 0.00 | 0.00 | 89 | 1011.5 |
| 20260504042049 | 9 | 136 | 3.2 | 3.2 | 0.00 | 0.00 | 0.00 | 90 | 1011.6 |
| 20260504041545 | 9 | 137 | 3.2 | 3.2 | 0.00 | 0.00 | 0.00 | 92 | 1011.2 |
| 20260504041041 | 9 | 134 | 1.6 | 3.2 | 0.00 | 0.00 | 0.00 | 91 | 1011.6 |
| 20260504040539 | 9 | 140 | 3.2 | 3.2 | 0.00 | 0.00 | 0.00 | 90 | 1011.6 |